Regional Weather Roundup
Issued by NWS Newport/Morehead, NC

Current Version | Previous Version | Graphics & Text | Print | Product List | Glossary Off
Versions: 1 2 3 4 5 6 7 8 9 10 11 12 13 14 15 16 17 18 19 20 21 22 23 24 25 26 27 28 29 30 31 32 33 34 35 36 37 38 39 40 41 42 43 44 45 46 47 48 49 50

000
ASUS42 KMHX 212125
RWRMHX
WEATHER ROUNDUP FOR EASTERN NORTH CAROLINA
NATIONAL WEATHER SERVICE NEWPORT/MOREHEAD CITY NC
400 PM EST SAT JAN 21 2017

NOTE: "FAIR" INDICATES FEW OR NO CLOUDS BELOW 12,000 FEET
WITH NO SIGNIFICANT WEATHER AND/OR OBSTRUCTIONS TO VISIBILITY

NCZ015>017-031-032-045>047-102-103-212200-
NORTH COAST

CITY           SKY/WX    TMP DP  RH WIND       PRES   REMARKS
EDENTON        CLOUDY    56  53  89 CALM      29.85S
ELIZABETH CITY CLOUDY    50  50 100 E3        29.84F FOG
KITTY HAWK     NOT AVBL
MANTEO         CLOUDY    52  52 100 CALM      29.85S

$$

NCZ045>047-081-094-103-104-212200-
CENTRAL COAST

CITY           SKY/WX    TMP DP  RH WIND       PRES   REMARKS
FRISCO         CLOUDY    56  52  86 N7        29.82F

$$

NCZ095-097-098-100-101-212200-
SOUTHERN COAST

CITY           SKY/WX    TMP DP  RH WIND       PRES   REMARKS
BEAUFORT       CLOUDY    67  62  84 CALM      29.81S
CEDAR ISLAND   NOT AVBL
JACKSONVILLE   CLOUDY    64  62  93 CALM      29.79S
PINEY ISLAND   CLOUDY   N/A N/A N/A N5        29.82S
WILMINGTON     CLOUDY    64  62  93 SE6       29.77F


$$

NCZ011>013-027>030-043-044-078>080-089-090>093-098-212200-
COASTAL PLAIN

CITY           SKY/WX    TMP DP  RH WIND       PRES   REMARKS
AHOSKIE          N/A     52  52  97 CALM      29.84S FOG
CLINTON        LGT RAIN  61  60  96 NE3       29.78F
ELIZABETHTOWN  LGT RAIN  66  63  89 SE5       29.76F
GOLDSBORO      CLOUDY    58  58 100 E7        29.79S FOG
GREENVILLE     CLOUDY    59  55  88 SE5       29.84F
HAVELOCK       CLOUDY    57  52  83 NE7       29.82F
KENANSVILLE    LGT RAIN  61  59  94 E3        29.79F FOG
KINSTON        CLOUDY    59  55  88 SE5       29.83
NEW BERN       CLOUDY    59  54  83 E5        29.82F
RICHLANDS      CLOUDY    62  59  90 CALM      29.80F
ROCKY MOUNT    FOG       54  54 100 VRB3      29.82S VSB 1/4
WASHINGTON     CLOUDY    58  52  81 E3          N/A
WHITEVILLE     CLOUDY    66  63  92 SE3       29.75F

$$

AMZ130-135-150-152-154-156-158-170-250-252-270-ANZ085-086-088-633-658-670-212200-
MARINE OBSERVATIONS

STATION/POSITION TIME  TEMP    WIND        PRES    WAVE   SWELL
                       AIR SEA DIR/SP/G            HT/PER HT/PER
                 (UTC) (F)     (DEG/KT/KT) (MB)    (FT/S) (FT/S)
CHESAPEAKE LIGHT NOT AVBL
64 E VA BEACH    2050   56 57   30/  4/  6 1010.2    3/11   3/11
DUCK             2100   49 46   CALM  /  1 1010.1
2 E DUCK         2100      48                N/A     3/11   2/11
OREGON INLET     2100   53 49  300/  2/  4 1010.3
13E OREGON INLT  NOT AVBL
HATTERAS CG      2100   52 55   20/  7/  8 1009.3
DIAMOND BUOY     2050   70 74  170/ 10/ 12 1009.5    4/ 9   3/ 9
CAPE LOOKOUT     2100   65      70/  2/  3 1008.8
BEAUFORT LAB     2100   65 51   90/  2/  3 1008.2
30 SE NEW RVR IN 2008   65 65  190/  4/  6 1009.3
30 SE NEW RVR IN 2113      66                N/A     3/11   2/11
27 SE WRIGHTSVLE 2108   71 72  170/ 14/ 19 1008.1
5 SE WRIGHTSVLE  2108   57      30/  4/  8 1008.3
225 S CAPE HAT   2050   69 71  130/ 10/ 12 1011.1    5/12   5/12
41 SE CHARLESTON 2050   69 67  190/  8/ 10 1007.1    2/11   2/11

$$




USA.gov is the U.S. government's official web portal to all federal, state and local government web resources and services.